OV1-5 DEB, 5361

Orbit data source: Space-Track

OV1-5 DEB, 5361 is space debris in LEO originally from a launch on Wed, 30 Mar 1966 UTC launched from the Air Force Western Test Range (AFWTR). Debris objects in space refer to the collection of defunct objects orbiting the Earth. Examples of debris include non-operational satellites, rocket bodies, and fragments generated from explosions, collisions, or faulty payload assembly.

Loading next visibility...
Identifier
5361, 1966-025F
Orbit
LEO
Country
Flag of USUS
Related business
Flag of USAir Force Systems Command (OAR legacy assets) (US)
Manufacturer
Unknown
Mission
Spacecraft
Bus & Motor
Unknown
Mass
Unknown
Launch date (UTC)
1966-03-30 (59 years ago)
Launch vehicle
Unknown
Launch site
Air Force Western Test Range (AFWTR)
Object type
Payload
Rocket body
Debris
Shape & HBR
Unknown
Radar Cross Section
Small (<0.1 m²)

Expand to show TLE details & history
Last TLE update: 19 hours ago

TLE from 19 hours ago
0 OV1-5 DEB
1 05361U 66025F   25242.50984615  .00012882  00000-0  31903-2 0  9996
2 05361 144.6126 133.0238 0020777  46.5669 313.6757 14.49672157326526
Epoch: 2025-08-30T12:14Z
TLE epoch observation values (Epoch: 2025-08-30T12:14:10.707Z)
Latitude
-0.00001°
Longitude
-29.46391°
Altitude
715.525 km
Speed
7.505 km/s
True Right ascension
08h 52m 05s
True Declination
0° 00' 00"
Sunlit
Object was in daylight at epoch
Visualization orbit readout
Latitude
Unknown
Longitude
Unknown
Altitude
Unknown
Speed
Unknown
Apparent Right ascension
Unknown
Apparent Declination
Unknown
Sunlit
N/A
Visualization observer readout
Local Sidereal Time
22:24:15
Azimuth
Unknown
Elevation
Unknown
Doppler factor
Unknown
Orbital elements
Apogee altitude
744.574 km
Perigee altitude
715.037 km
Semi-major axis
7,107.942 km
Eccentricity
0.00208
Inclination
144.6126°
RAAN
133.0238°
Arg. of periapsis
46.5669°
True anomaly
313.50319°
Mean anomaly
313.6757°
Eccentric anomaly
313.58948°
Mean motion
3.62182 °/min
Orbital period
99.4 mins
BSTAR
0.0031903
Loading maneuver chart data...
Computing Atmospheric mass density...
Loading historical data...
Loading historical data...
Loading historical data...
Loading historical data...
Loading historical data...
Loading historical data...
Loading historical data...

Documentation

Showing up to 5 results
|